Change the Weather History Date:

Sunday, February 9, 2014

  Actual Average Record
Temperature  
Mean Temperature 38 °F -  
Max Temperature 42 °F 47 °F 51 °F (1998)
Min Temperature 33 °F 37 °F 28 °F (1999)
Degree Days  
Heating Degree Days 28    
Moisture  
Dew Point 35 °F    
Average Humidity 86    
Maximum Humidity 96    
Minimum Humidity 66    
Precipitation  
Precipitation 0.03 in 0.14 in - ()
Sea Level Pressure  
Sea Level Pressure 28.95 in    
Wind  
Wind Speed 18 mph ()    
Max Wind Speed 27 mph    
Max Gust Speed 41 mph    
Visibility 8.5 miles    
Events Rain , Snow    
Averages and records for this station are not official NWS values.
T = Trace of Precipitation, MM = Missing Value Source: Averaged Metar Reports

Daily Weather History Graph

Daily Weather History Graph

Search for Another Location

Airport or City:

Trip Planner

Search our weather history database for the weather conditions in past years. The results will help you decide how hot, cold, wet, or windy it might be!

Date:

Astronomy

Feb. 09, 2014 Rise Set
Actual Time 8:00 AM GMT 5:36 PM GMT
Civil Twilight 7:24 AM GMT 6:12 PM GMT
Nautical Twilight 6:44 AM GMT 6:52 PM GMT
Astronomical Twilight 6:05 AM GMT 7:31 PM GMT
Moon 12:53 PM GMT (2/9) 4:06 AM GMT (2/9)
Length of Visible Light 10h 47m
Length of Day
9h 36m
Waxing Gibbous, 75% of the Moon is Illuminated
Feb 9
Waxing Gibbous
Feb 14
Full
Feb 22
Last Quarter
Mar 1
New
Mar 8
First Quarter

Hourly Weather History & Observations

Time (GMT) Temp. Windchill Dew Point Humidity Pressure Visibility Wind Dir Wind Speed Gust Speed Precip Events Conditions
12:00 AM 42 °F - 39 °F 83% 28.72 in 16 mi West 26.8 mph - - Rain Light Rain Showers
12:00 AM 42.8 °F 32.9 °F 39.2 °F 87% 28.74 in 6.2 mi West 26.5 mph 41.4 mph N/A Rain Light Rain Showers
12:30 AM 41.0 °F 30.5 °F 37.4 °F 87% 28.74 in 6.2 mi West 26.5 mph - N/A   Mostly Cloudy
1:00 AM 41 °F - 38 °F 85% 28.77 in 16 mi West 24.6 mph - - Rain Light Rain Showers
1:00 AM 41.0 °F 30.9 °F 37.4 °F 87% 28.77 in 6.2 mi West 24.2 mph 36.8 mph N/A Rain Light Rain Showers
1:30 AM 41.0 °F 31.1 °F 37.4 °F 87% 28.80 in 6.2 mi West 23.0 mph - N/A   Mostly Cloudy
2:00 AM 41 °F - 38 °F 85% 28.80 in 12 mi West 24.6 mph - - Rain Light Rain Showers
2:00 AM 41.0 °F 30.9 °F 37.4 °F 87% 28.80 in 6.2 mi West 24.2 mph 36.8 mph N/A Rain Light Rain Showers
2:30 AM 39.2 °F 28.3 °F 37.4 °F 93% 28.82 in 6.2 mi West 25.3 mph - N/A Rain Light Rain Showers
3:00 AM 40 °F - 37 °F 84% 28.85 in 17 mi West 17.9 mph - - Rain Light Rain Showers
3:00 AM 39.2 °F 30.5 °F 37.4 °F 93% 28.82 in 6.2 mi West 16.1 mph - N/A Rain Light Rain Showers
3:30 AM 41.0 °F 31.9 °F 37.4 °F 87% 28.82 in 6.2 mi West 19.6 mph - N/A   Mostly Cloudy
4:00 AM 40 °F - 37 °F 83% 28.87 in 16 mi West 17.9 mph - - Rain Light Rain Showers
4:00 AM 39.2 °F 29.8 °F 37.4 °F 93% 28.85 in 6.2 mi West 18.4 mph - N/A   Mostly Cloudy
4:30 AM 39.2 °F 30.8 °F 35.6 °F 87% 28.85 in 6.2 mi WSW 15.0 mph - N/A   Mostly Cloudy
5:00 AM 39 °F - 35 °F 81% 28.90 in 12 mi WSW 17.9 mph - - Rain Light Rain Showers
5:00 AM 39.2 °F 29.8 °F 35.6 °F 87% 28.88 in 6.2 mi WSW 18.4 mph 29.9 mph N/A Rain Light Rain Showers
5:30 AM 39.2 °F 29.8 °F 35.6 °F 87% 28.88 in 6.2 mi WSW 18.4 mph - N/A   Mostly Cloudy
6:00 AM 38 °F - 35 °F 86% 28.95 in 12 mi WSW 15.7 mph - - Rain Light Rain Showers
6:00 AM 37.4 °F 28.2 °F 35.6 °F 93% 28.91 in 6.2 mi WSW 16.1 mph - N/A Rain Light Rain Showers
6:30 AM 37.4 °F 29.3 °F 35.6 °F 93% 28.91 in 6.2 mi West 12.7 mph - N/A   Mostly Cloudy
7:00 AM 38 °F - 36 °F 88% 28.96 in 16 mi WSW 15.7 mph - - Rain Light Rain Showers
7:00 AM 37.4 °F 28.2 °F 35.6 °F 93% 28.94 in 6.2 mi WSW 16.1 mph - N/A Rain Light Rain Showers
7:30 AM 37.4 °F 25.6 °F 33.8 °F 87% 28.94 in 6.2 mi West 26.5 mph - N/A   Scattered Clouds
8:00 AM 36 °F - 33 °F 84% 28.98 in 19 mi WSW 20.1 mph - - Rain Light Rain Showers
8:00 AM 35.6 °F 24.8 °F 33.8 °F 93% 28.94 in 6.2 mi WSW 19.6 mph - N/A   Scattered Clouds
8:30 AM 37.4 °F 27.8 °F 33.8 °F 87% 28.97 in 6.2 mi WSW 17.3 mph - N/A   Mostly Cloudy
9:00 AM 38 °F - 34 °F 81% 29.01 in 22 mi WSW 20.1 mph - - Rain Light Rain Showers
9:00 AM 37.4 °F 27.2 °F 33.8 °F 87% 28.97 in 6.2 mi WSW 19.6 mph - N/A   Mostly Cloudy
9:30 AM 37.4 °F 27.8 °F 33.8 °F 87% 29.00 in 6.2 mi WSW 17.3 mph 29.9 mph N/A   Mostly Cloudy
10:00 AM 39 °F - 36 °F 83% 29.04 in 22 mi WSW 15.7 mph - -   Partly Cloudy
10:00 AM 39.2 °F 30.8 °F 35.6 °F 87% 29.00 in 6.2 mi WSW 15.0 mph - N/A   Scattered Clouds
10:30 AM 39.2 °F 30.8 °F 35.6 °F 87% 29.00 in 6.2 mi WSW 15.0 mph - N/A   Scattered Clouds
11:00 AM 38 °F - 35 °F 83% 29.05 in 22 mi WSW 15.7 mph - -   Partly Cloudy
11:00 AM 37.4 °F 28.5 °F 35.6 °F 93% 29.03 in 6.2 mi WSW 15.0 mph - N/A   Scattered Clouds
11:30 AM 37.4 °F 27.8 °F 33.8 °F 87% 29.03 in 6.2 mi WSW 17.3 mph - N/A   Mostly Cloudy
12:00 PM 38 °F - 35 °F 85% 29.08 in 22 mi WSW 20.1 mph - - Rain Light Rain Showers
12:00 PM 37.4 °F 27.2 °F 35.6 °F 93% 29.06 in 6.2 mi WSW 19.6 mph - N/A   Mostly Cloudy
12:30 PM 37.4 °F 27.8 °F 33.8 °F 87% 29.03 in 6.2 mi WSW 17.3 mph - N/A   Mostly Cloudy
1:00 PM 39 °F - 36 °F 83% 29.07 in 19 mi WSW 17.9 mph - -   Partly Cloudy
1:00 PM 39.2 °F 29.8 °F 35.6 °F 87% 29.03 in 6.2 mi WSW 18.4 mph - N/A   Scattered Clouds
1:30 PM 41.0 °F 32.5 °F 35.6 °F 81% 29.03 in 6.2 mi SW 17.3 mph - N/A   Partly Cloudy
2:00 PM 42 °F - 34 °F 66% 29.05 in 22 mi WSW 20.1 mph - -   Scattered Clouds
2:00 PM 41.0 °F 31.6 °F 33.8 °F 76% 29.03 in 6.2 mi WSW 20.7 mph - N/A   Partly Cloudy
2:30 PM 41.0 °F 32.8 °F 35.6 °F 81% 29.03 in 6.2 mi SW 16.1 mph - N/A   Mostly Cloudy
3:00 PM 40 °F - 35 °F 78% 29.05 in 9 mi WSW 15.7 mph - - Rain Light Rain Showers
3:00 PM 39.2 °F 30.5 °F 35.6 °F 87% 29.03 in 6.2 mi WSW 16.1 mph - N/A Rain Light Rain Showers
3:30 PM 39.2 °F 30.5 °F 33.8 °F 81% 29.00 in 6.2 mi SW 16.1 mph - N/A   Scattered Clouds
4:00 PM 40 °F - 33 °F 69% 29.04 in 25 mi SW 13.4 mph - - Rain Light Rain Showers
4:00 PM 39.2 °F 31.2 °F 33.8 °F 81% 29.00 in 6.2 mi SW 13.8 mph - N/A   Partly Cloudy
4:30 PM 39.2 °F 30.2 °F 32.0 °F 75% 29.00 in 6.2 mi SW 17.3 mph - N/A   Scattered Clouds
5:00 PM 38 °F - 33 °F 74% 29.03 in 25 mi SW 15.7 mph - -   Partly Cloudy
5:00 PM 37.4 °F 28.2 °F 32.0 °F 81% 29.00 in 6.2 mi SW 16.1 mph - N/A   Scattered Clouds
5:30 PM 37.4 °F 30.8 °F 32.0 °F 81% 29.00 in 6.2 mi SSW 9.2 mph - N/A   Scattered Clouds
6:00 PM 34 °F - 31 °F 86% 29.03 in 16 mi SSW 8.9 mph - - Snow Light Snow Showers
6:00 PM 33.8 °F 26.4 °F 32.0 °F 93% 29.00 in 6.2 mi SSW 9.2 mph - N/A   Mostly Cloudy
6:30 PM 37.4 °F 28.9 °F 33.8 °F 87% 29.00 in 6.2 mi South 13.8 mph - N/A   Mostly Cloudy
7:00 PM 37 °F - 34 °F 84% 29.01 in 12 mi SSW 17.9 mph - - Rain Light Rain Showers
7:00 PM 37.4 °F 27.5 °F 33.8 °F 87% 28.97 in 6.2 mi SSW 18.4 mph - N/A   Mostly Cloudy
7:30 PM 37.4 °F 29.3 °F 35.6 °F 93% 28.97 in 6.2 mi South 12.7 mph - N/A Rain Light Rain Showers
8:00 PM 39 °F - 36 °F 87% 28.97 in 12 mi South 15.7 mph - - Rain Light Rain Showers
8:00 PM 39.2 °F 30.8 °F 37.4 °F 93% 28.94 in 6.2 mi South 15.0 mph - N/A Rain Light Rain Showers
8:30 PM 39.2 °F 29.8 °F 37.4 °F 93% 28.91 in 6.2 mi SSW 18.4 mph - N/A Rain Light Rain Showers
9:00 PM 38 °F - 36 °F 91% 28.93 in 16 mi SW 15.7 mph - - Rain Light Rain Showers
9:00 PM 37.4 °F 28.5 °F 35.6 °F 93% 28.91 in 6.2 mi SW 15.0 mph - N/A Rain Light Rain Showers
9:30 PM 37.4 °F 28.5 °F 35.6 °F 93% 28.91 in 6.2 mi SW 15.0 mph - N/A   Mostly Cloudy
10:00 PM 36 °F - 35 °F 92% 28.96 in 19 mi SW 11.2 mph - - Rain Light Rain Showers
10:00 PM 35.6 °F 28.0 °F 33.8 °F 93% 28.91 in 6.2 mi SW 10.4 mph - N/A   Scattered Clouds
10:30 PM 35.6 °F 30.7 °F 33.8 °F 93% 28.91 in 6.2 mi SSW 5.8 mph - N/A   Scattered Clouds
11:00 PM 35 °F - 34 °F 96% 28.97 in 19 mi SW 6.7 mph - - Rain Light Rain Showers
11:00 PM 35.6 °F 29.9 °F 33.8 °F 93% 28.94 in 6.2 mi SW 6.9 mph - N/A   Mostly Cloudy
11:30 PM 35.6 °F 30.7 °F 33.8 °F 93% 28.94 in 6.2 mi West 5.8 mph - N/A   Mostly Cloudy